www.pogodaiklimat.ru

Погода и климат >> Архив погоды >> Гондурас >> Choluteca


ПОГОДА в Choluteca

  • Прогноз погоды в Choluteca
  • Монитор погоды в Choluteca
  • Климат города

АРХИВ ПОГОДЫ в Choluteca

Время (UTC), дата Ветер
(напр.,м/с)
 
Видим.   Явления Облачность Т
(С)
Тd
(С)
f
(%)
Тe
(С)
Тes
(С)
Комфортность P
(гПа)
Po
(гПа)
Тmin
(С)
Tmax
(С)
R
(мм)
R24
(мм)
S
(см)
12 18.09 штиль 0 15 км дымка 6/3 840 м
[Sc Ci fib]
+24.2 +24.2 100 +33 +33 очень
душно
1014.5 1008.8 +24.2 +34.4
15 18.09 штиль 0 15 км мгла {туман} 6/3 900 м
[Cu hum Ci fib]
+31.0 +24.0 66 +43 +53 опасность
перегрева
1011.4 1006.7
18 18.09 ЮЗ 3 15 км мгла {туман} 5/4 1020 м
[Cu med, cong Ci fib]
+32.6 +26.3 70 +49 +59 опасность
перегрева
1012.9 1007.2 +24.2 +33.2
21 18.09 штиль 0 15 км гроза без осадков {туман} 6/5 960 м
[Cb cap Ci fib]
+33.4 +24.9 61 +47 +53 опасность
перегрева
1011.4 1005.7
00 19.09 ЮЗ 8 8000 м гроза без осадков 8/6 960 м
[Cb cap Ci ing]
+28.0 +23.9 78 +39 +39 очень
душно
1012.6 1006.9 +24.2 +34.2
12 19.09 штиль 0 10 км дымка 5/1 840 м
[Sc Ci fib]
+23.2 +23.2 100 +33 +33 очень
душно
1014.4 1008.7 +23.2 +34.2 4
15 19.09 штиль 0 15 км мгла {туман} 4/1 900 м
[Cu hum Ac trans Ci fib]
+30.8 +24.9 71 +44 +56 опасность
перегрева
1012.5 1006.8
18 19.09 С 3 15 км мгла {туман} 8/4 960 м
[Cu hum Ac trans Ci fib]
+34.4 +24.8 57 +47 +54 опасность
перегрева
1010.8 1005.1 +23.2 +34.4
21 19.09 С 2 15 км мгла {туман} 9/4 960 м
[Cu med, cong Ac trans Cs]
+33.6 +25.4 62 +48 +51 опасность
перегрева
1011.4 1005.6
00 20.09 ЮЗ 2 7000 м гроза, ливневой дождь {морось} 9/6 600 м
[Cb cap Ac trans Cs]
+25.0 +24.8 99 +35 +35 очень
душно
1012.7 1007.0 +23.2 +36.4 19
12 20.09 С 5 15 км мгла 8/1 840 м
[Sc Ac As]
+26.4 +23.2 83 +36 +36 очень
душно
1013.8 1008.1 +26.4 +36.4 0.5
15 20.09 СВ 2 15 км мгла {туман} 8/3 900 м
[Cu hum Ac trans Ci fib]
+31.4 +23.1 61 +42 +47 опасность
перегрева
1012.0 1009.6
18 20.09 В 3 15 км мгла {туман} 8/4 1020 м
[Sc Ac trans Ci fib]
+33.4 +25.1 62 +47 +54 опасность
перегрева
1011.3 1005.6 +26.3 +33.4
21 20.09 СВ 4 7000 м гроза без осадков {ливн. осадки} 9/6 960 м
[Cb cap Ac trans Cs]
+26.2 +24.9 93 +37 +39 очень
душно
1011.6 1005.9 4
00 21.09 СВ 4 10 км мгла {гроза, туман} 10/1 840 м
[Sc diur, vesp Ac trans Cs]
+27.4 +1.8 19 +26 +26 жарко 1012.1 1006.4 +26.4 +34.0 4
15 21.09 СВ 4 15 км мгла {туман} 8/3 900 м
[Cu hum Ac trans Cs]
+29.4 +22.5 66 +38 +42 очень
душно
1013.5 1007.8
18 21.09 СВ 2 15 км мгла {туман} 9/3 1020 м
[Cu hum Ac As Cs]
+31.5 +25.4 70 +46 +54 опасность
перегрева
1011.5 1005.8 +24.0 +31.8
21 21.09 СВ 2 15 км мгла {туман} 9/3 1020 м
[Cu med, cong Ac As Ci fib]
+34.0 +25.8 62 +49 +53 опасность
перегрева
1010.7 1005.0
00 22.09 СВ 5 15 км мгла {туман} 9/3 960 м
[Cb cap Ac trans Cs]
+29.0 +22.0 66 +37 +37 очень
душно
1012.0 1006.3 +24.0 +34.0
12 22.09 СВ 2 15 км мгла {туман} 8/1 840 м
[Sc Ac trans Ci fib]
+25.8 +22.7 83 +34 +34 очень
душно
1013.5 1007.8 +25.8 +34.0
15 22.09 СВ 3 15 км мгла {туман} 6/1 900 м
[Cu hum Ac trans Ci fib]
+30.8 +22.1 60 +40 +46 очень
душно
1011.7 1006.2
18 22.09 СВ 3 15 км мгла {туман} 6/1 1020 м
[Cu hum Ac trans Ci fib]
+34.2 +23.0 52 +44 +55 опасность
перегрева
1011.6 1005.9 +25.8 +34.2
21 22.09 СВ 3 15 км гроза без осадков {туман} 8/5 960 м
[Cb cap Ac trans Ci fib]
+35.6 +25.6 56 +50 +53 опасность
перегрева
1010.7 1005.0
00 23.09 СВ 2 9000 м гроза, ливневой дождь 9/4 600 м
[Cb cap Ac As]
+24.4 +23.6 95 +33 +33 очень
душно
1011.7 1006.8 +24.4 +35.6 12
12 23.09 СВ 3 15 км мгла 6/1 840 м
[Sc Ac trans Ci fib]
+25.4 +21.7 80 +33 +33 очень
душно
1013.9 1008.2 +25.4 +35.6 6
15 23.09 С 3 15 км мгла {туман} 6/1 840 м
[Cu hum Ac trans Ci fib]
+30.4 +22.3 62 +39 +45 очень
душно
1011.8 1006.1
18 23.09 СВ 3 15 км мгла {туман} 8/3 960 м
[Cu hum Ac trans Ci fib]
+33.0 +22.0 52 +41 +50 опасность
перегрева
1011.4 1005.7 +25.4 +33.0
21 23.09 С 3 15 км мгла {туман} 8/1 960 м
[Cu hum Ac trans Ci fib]
+35.2 +23.9 52 +47 +51 опасность
перегрева
1011.5 1005.8
00 24.09 штиль 0 15 км мгла {туман} 8/3 900 м
[Sc Ac trans Ci fib]
+31.4 +23.1 61 +42 +42 опасность
перегрева
1010.5 1004.8 +25.4 +35.2
12 24.09 СВ 2 15 км мгла 6/1 840 м
[Sc Ci fib]
+24.4 +24.3 99 +34 +34 очень
душно
1014.0 1008.3 +24.4 +35.2
15 24.09 СВ 6 15 км мгла {туман} 6/1 900 м
[Cu hum Ci fib]
+29.2 +20.4 59 +36 +39 очень
душно
1012.9 1007.2
18 24.09 СВ 5 25 км мгла {туман} 5/1 900 м
[Cu hum Ci fib]
+33.0 +22.0 52 +41 +50 опасность
перегрева
1013.8 1008.1 +24.4 +33.0
21 24.09 СВ 3 15 км мгла {туман} 8/1 960 м
[Cu hum Ac trans Ci fib]
+35.4 +24.7 54 +48 +52 опасность
перегрева
1011.1 1005.4
00 25.09 штиль 0 15 км мгла {туман} 8/1 900 м
[Sc Ac trans Ci fib]
+30.0 +23.5 68 +41 +41 опасность
перегрева
1012.2 1006.5 +24.4 +34.4

 

Местоположение метеостанции Choluteca (Гондурас): широта 13.30 долгота -87.18 высота над уровнем моря 48 м.

В архиве по умолчанию представлена погода в Choluteca за последнюю неделю. Архивные данные за месяц целиком и за предыдущие месяцы, начиная с января 2011 года, Вы можете получить, выбрав интересующий диапазон дат из раскрывающегося списка и нажав кнопку "Ввод!".


*Определитесь, кто Вы:
робот инопланетянин человек

Внимание! Время в таблицах - всемирное. Для получения местного времени необходимо прибавить поправку, которая в Choluteca равна -6 ч.

Смотрите также архив погоды в соседних городах и на ближайших метеорологических станциях:

Погода в Amapala (Гондурас) (51 км)
Погода в Chinandega (Никарагуа) (75 км)
Погода в Tegucigalpa (Гондурас) (83 км)
Погода в Jinotega (Никарагуа) (132 км)
Погода в La Esperanza (Гондурас) (155 км)
Погода в Managua (Никарагуа) (168 км)
Погода в Yoro (Гондурас) (208 км)
Погода в Catacamas (Гондурас) (223 км)
Погода в Juigalpa (Никарагуа) (237 км)
Погода в Santa Rosa De Copan (Гондурас) (239 км)

Пояснения к столбцам:

Ветер - указаны скорость ветра в м/с - средняя за 10 мин, порывы в срок и между сроками (в фигурных скобках) и направление, откуда дует ветер: С - северный, СВ - северо-восточный, В - восточный, ЮВ - юго-восточный, Ю - южный, ЮЗ - юго-западный, З - западный, СЗ - северо-западный.
Видимость - горизонтальная дальность видимости в метрах или километрах. При видимости от 1 до 10 км при отсутствии осадков обычно наблюдается дымка, при ухудшении видимости до 1 км и менее - туман. В сухую погоду видимость может ухудшаться дымом, пылью или мглою.
Явления - указаны атмосферные явления, наблюдавшиеся в срок или в последний час перед сроком; фигурными скобками обозначены явления, наблюдавшиеся между сроками (за 1-3 часа до срока); квадратными скобками обозначены град или гололедные отложения с указанием их диаметра в мм.
Облачность - указаны через наклонную черту общая и нижняя облачность в баллах и высота нижней границы облаков в метрах; квадратными скобками обозначены формы облаков: Ci - перистые, Cs - перисто-слоистые, Cc - перисто-кучевые, Ac - высококучевые, As - высокослоистые, Sc - слоисто-кучевые, Ns - слоисто-дождевые, Cu - кучевые, Cb - кучево-дождевые. Подробнее классификацию облаков см. в Атласе облаков (PDF).
T - Температура воздуха - температура, измеренная на высоте 2 м над землей.
Td - Температура точки росы - температура, при понижении до которой содержащийся в воздухе водяной пар достигнет насыщения.
f - Относительная влажность воздуха - влажноcть воздуха, измеренная на высоте 2 м над землей.
Te - Эффективная температура - температура, которую ощущает одетый по сезону человек в тени. Характеристика душности погоды. При расчете учитывается влияние влажности воздуха и скорости ветра на теплоощущения человека.
Tes - Эффективная температура на солнце - температура, которую ощущает человек, с поправкой на солнечный нагрев. Характеристика знойности погоды. Зависит от высоты солнца над горизонтом, облачности и скорости ветра. Ночью, в пасмурную погоду, а также при ветре 12 м/с и более поправка равна нулю.
P - Атмосферное давление - приведенное к уровню моря атмосферное давление.
Po - Атмосферное давление - измеренное на уровне метеостанции атмосферное давление.
Tmin - Минимальная температура - минимум температуры воздуха на высоте 2 м над землей.
Tmax - Максимальная температура - максимум температуры воздуха на высоте 2 м над землей.
R - Количество осадков - Количество выпавших осадков за период времени, мм. При наведении курсора мыши на число - период времени, за который выпало указанное количество осадков.
R24 - Количество осадков - Количество выпавших осадков за 24 часа, мм.
S - Снежный покров - Высота снежного покрова, см. При наведении курсора мыши на число - состояние снежного покрова и степень покрытия местности в баллах.